This is the latest recevied weather packets stored in our database for station/object KE6YLF. If no packets are shown the sender has not sent any weather packets the latest 10 day(s).
| Time | Temp. | Humidity | Pressure | Rain* | Wind** | Luminosity | Snow |
|---|---|---|---|---|---|---|---|
| 1777617903 | 20° C | 50% | 1073.1 hPa | 0 mm | - | - | - |
| 1777617598 | 20° C | 49% | 1073.2 hPa | 0 mm | - | - | - |
| 1777617295 | 20° C | 49% | 1073.3 hPa | 0 mm | - | - | - |
| 1777616992 | 20.56° C | 47% | 1073.2 hPa | 0 mm | - | - | - |
| 1777616687 | 20.56° C | 44% | 1073 hPa | 0 mm | - | - | - |
| 1777616382 | 20.56° C | 43% | 1073 hPa | 0 mm | - | - | - |
| 1777616079 | 21.11° C | 43% | 1072.9 hPa | 0 mm | - | - | - |
| 1777615776 | 21.11° C | 42% | 1073 hPa | 0 mm | - | - | - |
| 1777615473 | 21.11° C | 41% | 1072.5 hPa | 0 mm | - | - | - |
| 1777615172 | 21.11° C | 41% | 1072.6 hPa | 0 mm | - | - | - |
| 1777614868 | 21.11° C | 41% | 1072.4 hPa | 0 mm | - | - | - |
| 1777614565 | 21.11° C | 41% | 1072.5 hPa | 0 mm | - | - | - |
| 1777614260 | 21.67° C | 41% | 1072.5 hPa | 0 mm | - | - | - |
| 1777613955 | 21.11° C | 41% | 1072.4 hPa | 0 mm | - | - | - |
| 1777613652 | 21.11° C | 42% | 1072.3 hPa | 0 mm | - | - | - |
| 1777613349 | 21.11° C | 42% | 1072.2 hPa | 0 mm | - | - | - |
| 1777613046 | 21.11° C | 42% | 1072.3 hPa | 0 mm | - | - | - |
| 1777612742 | 21.11° C | 43% | 1072.2 hPa | 0 mm | - | - | - |
| 1777612438 | 21.11° C | 43% | 1072.1 hPa | 0 mm | - | - | - |
| 1777612133 | 21.11° C | 43% | 1072.1 hPa | 0 mm | - | - | - |
| 1777611829 | 21.11° C | 43% | 1072 hPa | 0 mm | - | - | - |
| 1777611525 | 21.11° C | 44% | 1071.8 hPa | 0 mm | - | - | - |
| 1777611222 | 20.56° C | 45% | 1071.8 hPa | 0 mm | - | - | - |
| 1777610919 | 20.56° C | 45% | 1071.8 hPa | 0 mm | - | - | - |
| 1777610614 | 20.56° C | 46% | 1071.8 hPa | 0 mm | - | - | - |
* Rain latest hour (hover to see other rain measurements)
** Current wind speed in m/s (hover to see current wind gust speed)